H1 CPF 2 NER 2023 12 23 9 357 01 glonass143 H2 2007501 9143 46805 2023 12 23 0 0 0 2023 12 26 23 45 0 900 1 1 0 0 0 1 H9 10 0 60301 0.00000 0 -3817883.877 -11690944.547 22350982.997 10 0 60301 900.00000 0 -2132104.208 -13794748.782 21352249.861 10 0 60301 1800.00000 0 -690366.586 -15895260.981 19938935.027 10 0 60301 2700.00000 0 490213.497 -17927419.601 18138407.524 10 0 60301 3600.00000 0 1405044.555 -19825753.599 15985564.917 10 0 60301 4500.00000 0 2062011.772 -21527019.781 13522162.593 10 0 60301 5400.00000 0 2480899.354 -22972767.401 10796008.389 10 0 60301 6300.00000 0 2692307.392 -24111722.671 7860037.561 10 0 60301 7200.00000 0 2736109.373 -24901892.951 4771285.659 10 0 60301 8100.00000 0 2659516.017 -25312301.834 1589779.193 10 0 60301 9000.00000 0 2514827.954 -25324281.660 -1622634.214 10 0 60301 9900.00000 0 2356973.086 -24932268.450 -4803492.897 10 0 60301 10800.00000 0 2240933.830 -24144065.284 -7890941.338 10 0 60301 11700.00000 0 2219174.180 -22980562.596 -10824938.950 10 0 60301 12600.00000 0 2339176.618 -21474926.883 -13548433.146 10 0 60301 13500.00000 0 2641194.168 -19671291.858 -16008473.191 10 0 60301 14400.00000 0 3156313.736 -17623007.039 -18157242.729 10 0 60301 15300.00000 0 3904913.469 -15390517.417 -19952990.575 10 0 60301 16200.00000 0 4895580.140 -13038963.188 -21360841.739 10 0 60301 17100.00000 0 6124532.959 -10635600.022 -22353473.132 10 0 60301 18000.00000 0 7575578.783 -8247147.689 -22911641.189 10 0 60301 18900.00000 0 9220601.293 -5937177.397 -23024551.702 10 0 60301 19800.00000 0 11020564.269 -3763646.341 -22690065.160 10 0 60301 20700.00000 0 12926987.538 -1776681.498 -21914734.085 10 0 60301 21600.00000 0 14883834.392 -16704.070 -20713671.957 10 0 60301 22500.00000 0 16829732.081 1487028.466 -19110256.503 10 0 60301 23400.00000 0 18700432.979 2717403.162 -17135673.135 10 0 60301 24300.00000 0 20431413.909 3669915.833 -14828307.394 10 0 60301 25200.00000 0 21960505.277 4352600.795 -12232998.042 10 0 60301 26100.00000 0 23230440.163 4785430.600 -9400165.208 10 0 60301 27000.00000 0 24191216.903 4999212.431 -6384830.433 10 0 60301 27900.00000 0 24802176.228 5034028.918 -3245547.595 10 0 60301 28800.00000 0 25033706.023 4937290.246 -43265.601 10 0 60301 29700.00000 0 24868502.247 4761480.717 3159854.953 10 0 60301 30600.00000 0 24302333.180 4561695.744 6301647.994 10 0 60301 31500.00000 0 23344274.983 4393073.961 9321147.422 10 0 60301 32400.00000 0 22016408.691 4308233.470 12159768.298 10 0 60301 33300.00000 0 20352991.307 4354820.871 14762440.865 10 0 60301 34200.00000 0 18399135.574 4573276.897 17078675.500 10 0 60301 35100.00000 0 16209053.430 4994913.213 19063538.270 10 0 60301 36000.00000 0 13843936.144 5640381.773 20678518.641 10 0 60301 36900.00000 0 11369559.073 6518601.647 21892272.988 10 0 60301 37800.00000 0 8853710.217 7626189.075 22681230.120 10 0 60301 38700.00000 0 6363548.769 8947415.541 23030047.528 10 0 60301 39600.00000 0 3963002.724 10454696.660 22931909.862 10 0 60301 40500.00000 0 1710312.758 12109592.656 22388663.998 10 0 60301 41400.00000 0 -344176.434 13864279.876 21410787.922 10 0 60301 42300.00000 0 -2159886.369 15663433.133 20017193.649 10 0 60301 43200.00000 0 -3707459.572 17446441.399 18234867.379 10 0 60301 44100.00000 0 -4969739.069 19149865.225 16098353.074 10 0 60301 45000.00000 0 -5942232.333 20710033.804 13649088.630 10 0 60301 45900.00000 0 -6633040.943 22065673.340 10934606.741 10 0 60301 46800.00000 0 -7062259.505 23160456.616 8007615.290 10 0 60301 47700.00000 0 -7260869.706 23945366.505 4924974.736 10 0 60301 48600.00000 0 -7269176.765 24380773.607 1746592.269 10 0 60301 49500.00000 0 -7134854.969 24438139.939 -1465745.645 10 0 60301 50400.00000 0 -6910685.704 24101276.161 -4649579.093 10 0 60301 51300.00000 0 -6652084.592 23367098.638 -7742994.835 10 0 60301 52200.00000 0 -6414523.344 22245853.722 -10685836.221 10 0 60301 53100.00000 0 -6250956.524 20760799.233 -13420878.534 10 0 60301 54000.00000 0 -6209363.080 18947356.122 -15894946.242 10 0 60301 54900.00000 0 -6330507.616 16851765.655 -18059949.962 10 0 60301 55800.00000 0 -6646016.846 14529308.336 -19873822.640 10 0 60301 56700.00000 0 -7176853.186 12042159.064 -21301336.788 10 0 60301 57600.00000 0 -7932250.470 9456968.175 -22314787.077 10 0 60301 58500.00000 0 -8909157.164 6842269.235 -22894525.434 10 0 60301 59400.00000 0 -10092210.934 4265821.442 -23029338.708 10 0 60301 60300.00000 0 -11454246.103 1791996.885 -22716662.128 10 0 60301 61200.00000 0 -12957313.079 -520679.181 -21962624.834 10 0 60301 62100.00000 0 -14554167.399 -2621733.563 -20781926.983 10 0 60301 63000.00000 0 -16190166.390 -4470605.134 -19197550.998 10 0 60301 63900.00000 0 -17805494.306 -6038083.386 -17240312.673 10 0 60301 64800.00000 0 -19337623.022 -7307266.971 -14948260.778 10 0 60301 65700.00000 0 -20723905.447 -8274003.710 -12365936.716 10 0 60301 66600.00000 0 -21904193.054 -8946795.200 -9543508.475 10 0 60301 67500.00000 0 -22823367.879 -9346171.567 -6535795.607 10 0 60301 68400.00000 0 -23433682.730 -9503564.069 -3401204.113 10 0 60301 69300.00000 0 -23696811.320 -9459724.304 -200592.019 10 0 60301 70200.00000 0 -23585522.146 -9262757.774 3003912.200 10 0 60301 71100.00000 0 -23084905.656 -8965855.720 6150115.225 10 0 60301 72000.00000 0 -22193103.038 -8624821.739 9176964.924 10 0 60301 72900.00000 0 -20921505.816 -8295498.195 12025733.248 10 0 60301 73800.00000 0 -19294417.634 -8031201.503 14641153.087 10 0 60301 74700.00000 0 -17348192.043 -7880274.806 16972487.096 10 0 60301 75600.00000 0 -15129881.963 -7883861.473 18974508.102 10 0 60301 76500.00000 0 -12695456.652 -8073993.398 20608372.510 10 0 60301 77400.00000 0 -10107659.920 -8472074.826 21842370.291 10 0 60301 78300.00000 0 -7433597.992 -9087825.783 22652537.581 10 0 60301 79200.00000 0 -4742156.472 -9918729.985 23023120.514 10 0 60301 80100.00000 0 -2101352.804 -10950011.100 22946881.630 10 0 60301 81000.00000 0 424266.812 -12155139.248 22425243.065 10 0 60301 81900.00000 0 2776078.955 -13496847.528 21468263.617 10 0 60301 82800.00000 0 4903582.047 -14928617.132 20094449.749 10 0 60301 83700.00000 0 6766252.411 -16396569.921 18330403.575 10 0 60301 84600.00000 0 8334980.858 -17841690.183 16210313.874 10 0 60301 85500.00000 0 9593030.557 -19202283.191 13775299.174 10 0 60302 0.00000 0 10536476.770 -20416567.800 11072615.106 10 0 60302 900.00000 0 11174111.077 -21425295.045 8154739.253 10 0 60302 1800.00000 0 11526813.537 -22174280.851 5078354.553 10 0 60302 2700.00000 0 11626421.468 -22616748.008 1903246.051 10 0 60302 3600.00000 0 11514141.949 -22715376.429 -1308863.855 10 0 60302 4500.00000 0 11238576.343 -22443975.040 -4495519.931 10 0 60302 5400.00000 0 10853441.120 -21788703.832 -7594754.108 10 0 60302 6300.00000 0 10415082.301 -20748793.572 -10546296.464 10 0 60302 7200.00000 0 9979889.619 -19336732.023 -13292752.810 10 0 60302 8100.00000 0 9601720.763 -17577908.112 -15780725.312 10 0 60302 9000.00000 0 9329445.457 -15509728.379 -17961853.847 10 0 60302 9900.00000 0 9204713.943 -13180242.383 -19793757.529 10 0 60302 10800.00000 0 9260044.679 -10646334.304 -21240858.103 10 0 60302 11700.00000 0 9517312.363 -7971556.100 -22275069.408 10 0 60302 12600.00000 0 9986700.326 -5223692.399 -22876339.883 10 0 60302 13500.00000 0 10666161.590 -2472158.345 -23033038.091 10 0 60302 14400.00000 0 11541411.402 214661.750 -22742174.275 10 0 60302 15300.00000 0 12586451.692 2772024.777 -22009454.126 10 0 60302 16200.00000 0 13764605.525 5141280.459 -20849164.061 10 0 60302 17100.00000 0 15030018.283 7272063.247 -19283890.478 10 0 60302 18000.00000 0 16329562.677 9124134.358 -17344078.502 10 0 60302 18900.00000 0 17605067.794 10668798.522 -15067438.757 10 0 60302 19800.00000 0 18795778.703 11889837.766 -12498213.565 10 0 60302 20700.00000 0 19840943.384 12783924.638 -9686316.699 10 0 60302 21600.00000 0 20682418.289 13360499.106 -6686363.311 10 0 60302 22500.00000 0 21267182.983 13641115.750 -3556608.805 10 0 60302 23400.00000 0 21549657.970 13658290.039 -357817.368 10 0 60302 24300.00000 0 21493728.053 13453893.477 2847917.747 10 0 60302 25200.00000 0 21074385.872 13077166.307 5998379.139 10 0 60302 26100.00000 0 20278926.217 12582432.431 9032431.742 10 0 60302 27000.00000 0 19107640.572 12026613.580 11891207.374 10 0 60302 27900.00000 0 17573982.259 11466648.105 14519244.348 10 0 60302 28800.00000 0 15704194.760 10956923.480 16865560.147 10 0 60302 29700.00000 0 13536418.146 10546830.923 18884636.640 10 0 60302 30600.00000 0 11119310.185 10278545.140 20537299.180 10 0 60302 31500.00000 0 8510238.876 10185122.655 21791473.037 10 0 60302 32400.00000 0 5773120.731 10288998.724 22622803.062 10 0 60302 33300.00000 0 2975993.673 10600946.114 23015125.058 10 0 60302 34200.00000 0 188424.362 11119539.753 22960780.080 10 0 60302 35100.00000 0 -2521143.523 11831150.189 22460765.705 10 0 60302 36000.00000 0 -5087991.091 12710466.773 21524721.252 10 0 60302 36900.00000 0 -7453569.045 13721529.423 20170746.849 10 0 60302 37800.00000 0 -9567684.912 14819226.533 18425059.262 10 0 60302 38700.00000 0 -11390342.479 15951197.031 16321490.392 10 0 60302 39600.00000 0 -12893157.480 17060057.422 13900837.332 10 0 60302 40500.00000 0 -14060291.066 18085860.743 11210075.795 10 0 60302 41400.00000 0 -14888862.528 18968684.254 8301451.488 10 0 60302 42300.00000 0 -15388824.476 19651236.789 5231466.694 10 0 60302 43200.00000 0 -15582306.263 20081375.546 2059781.573 10 0 60302 44100.00000 0 -15502453.891 20214425.456 -1151948.310 10 0 60302 45000.00000 0 -15191815.981 20015202.399 -4341275.154 10 0 60302 45900.00000 0 -14700344.726 19459653.847 -7446178.772 10 0 60302 46800.00000 0 -14083097.153 18536046.628 -10406278.601 10 0 60302 47700.00000 0 -13397734.758 17245650.661 -13164013.491 10 0 60302 48600.00000 0 -12701928.075 15602888.915 -15665765.651 10 0 60302 49500.00000 0 -12050776.707 13634946.377 -17862906.366 10 0 60302 50400.00000 0 -11494354.429 11380853.785 -19712742.837 10 0 60302 51300.00000 0 -11075483.511 8890083.908 -21179347.735 10 0 60302 52200.00000 0 -10827832.403 6220718.586 -22234255.511 10 0 60302 53100.00000 0 -10774417.073 3437262.675 -22857012.322 10 0 60302 54000.00000 0 -10926569.058 608195.562 -23035569.375 10 0 60302 54900.00000 0 -11283413.476 -2196638.296 -22766512.563 10 0 60302 55800.00000 0 -11831878.751 -4908691.815 -22055124.421 10 0 60302 56700.00000 0 -12547237.421 -7463320.727 -20915277.562 10 0 60302 57600.00000 0 -13394155.078 -9802224.574 -19369161.886 10 0 60302 58500.00000 0 -14328203.238 -11875622.667 -17446850.982 10 0 60302 59400.00000 0 -15297772.386 -13644075.576 -15185716.071 10 0 60302 60300.00000 0 -16246304.710 -15079877.464 -12629698.781 10 0 60302 61200.00000 0 -17114752.505 -16167962.437 -9828456.754 10 0 60302 62100.00000 0 -17844158.664 -16906288.398 -6836398.554 10 0 60302 63000.00000 0 -18378250.514 -17305683.676 -3711626.580 10 0 60302 63900.00000 0 -18665937.530 -17389164.187 -514808.581 10 0 60302 64800.00000 0 -18663607.471 -17190751.052 2692000.196 10 0 60302 65700.00000 0 -18337123.927 -16753839.522 5846561.191 10 0 60302 66600.00000 0 -17663440.754 -16129188.814 8887659.460 10 0 60302 67500.00000 0 -16631765.049 -15372618.286 11756289.804 10 0 60302 68400.00000 0 -15244219.184 -14542507.545 14396799.071 10 0 60302 69300.00000 0 -13515973.497 -13697206.123 16757962.578 10 0 60302 70200.00000 0 -11474843.284 -12892461.911 18793974.045 10 0 60302 71100.00000 0 -9160366.063 -12178976.521 20465330.289 10 0 60302 72000.00000 0 -6622396.656 -11600190.237 21739594.024 10 0 60302 72900.00000 0 -3919277.531 -11190389.417 22592020.522 10 0 60302 73800.00000 0 -1115659.359 -10973215.652 23006036.511 10 0 60302 74700.00000 0 1719938.837 -10960639.160 22973562.340 10 0 60302 75600.00000 0 4517729.852 -11152439.534 22495171.369 10 0 60302 76500.00000 0 7209312.064 -11536215.860 21580083.342 10 0 60302 77400.00000 0 9730267.674 -12087926.144 20245991.556 10 0 60302 78300.00000 0 12022598.491 -12772933.935 18518726.553 10 0 60302 79200.00000 0 14036898.801 -13547518.745 16431762.106 10 0 60302 80100.00000 0 15734175.458 -14360787.314 14025572.244 10 0 60302 81000.00000 0 17087239.845 -15156905.738 11346851.007 10 0 60302 81900.00000 0 18081613.919 -15877558.689 8447609.368 10 0 60302 82800.00000 0 18715912.775 -16464531.971 5384166.471 10 0 60302 83700.00000 0 19001688.065 -16862309.174 2216054.608 10 0 60302 84600.00000 0 18962739.286 -17020572.118 -995140.666 10 0 60302 85500.00000 0 18633922.458 -16896498.642 -4186982.252 10 0 60303 0.00000 0 18059507.130 -16456759.649 -7297400.812 10 0 60303 900.00000 0 17291151.443 -15679129.621 -10265908.838 10 0 60303 1800.00000 0 16385582.338 -14553642.087 -13034780.890 10 0 60303 2700.00000 0 15402078.692 -13083239.407 -15550181.937 10 0 60303 3600.00000 0 14399865.070 -11283888.934 -17763217.129 10 0 60303 4500.00000 0 13435526.472 -9184159.552 -19630883.924 10 0 60303 5400.00000 0 12560553.556 -6824275.565 -21116907.761 10 0 60303 6300.00000 0 11819122.027 -4254686.799 -22192445.206 10 0 60303 7200.00000 0 11246199.665 -1534214.086 -22836641.277 10 0 60303 8100.00000 0 10866060.432 1272153.099 -23037030.585 10 0 60303 9000.00000 0 10691267.745 4095715.698 -22789775.065 10 0 60303 9900.00000 0 10722169.130 6866679.064 -22099734.123 10 0 60303 10800.00000 0 10946922.937 9516813.866 -20980366.238 10 0 60303 11700.00000 0 11342055.412 11982054.051 -19453464.153 10 0 60303 12600.00000 0 11873524.179 14204924.605 -17548728.920 10 0 60303 13500.00000 0 12498242.951 16136699.058 -15303191.020 10 0 60303 14400.00000 0 13166002.906 17739197.855 -12760489.713 10 0 60303 15300.00000 0 13821709.511 18986153.687 -9970024.478 10 0 60303 16200.00000 0 14407840.248 19864087.871 -6985994.929 10 0 60303 17100.00000 0 14867019.398 20372662.331 -3866347.786 10 0 60303 18000.00000 0 15144600.983 20524493.568 -671651.436 10 0 60303 18900.00000 0 15191150.650 20344437.595 2536079.967 10 0 60303 19800.00000 0 14964721.443 19868376.906 5694589.867 10 0 60303 20700.00000 0 14432827.115 19141561.428 8742586.581 10 0 60303 21600.00000 0 13574029.332 18216573.993 11620930.918 10 0 60303 22500.00000 0 12379071.371 17151006.496 14273781.120 10 0 60303 23400.00000 0 10851509.953 16004944.857 16649672.974 10 0 60303 24300.00000 0 9007817.862 14838368.687 18702514.436 10 0 60303 25200.00000 0 6876952.041 13708574.836 20392475.899 10 0 60303 26100.00000 0 4499404.159 12667732.850 21686759.327 10 0 60303 27000.00000 0 1925772.013 11760674.540 22560231.898 10 0 60303 27900.00000 0 -785090.042 11023009.984 22995912.371 10 0 60303 28800.00000 0 -3568266.024 10479648.560 22985301.099 10 0 60303 29700.00000 0 -6355228.771 10143786.704 22528547.463 10 0 60303 30600.00000 0 -9076445.439 10016404.608 21634451.395 10 0 60303 31500.00000 0 -11664031.025 10086292.965 20320298.609 10 0 60303 32400.00000 0 -14054340.685 10330608.705 18611532.173 10 0 60303 33300.00000 0 -16190393.939 10715936.641 16541266.016 10 0 60303 34200.00000 0 -18024030.440 11199812.618 14149648.994 10 0 60303 35100.00000 0 -19517707.874 11732644.314 11483091.053 10 0 60303 36000.00000 0 -20645867.205 12259948.875 8593365.807 10 0 60303 36900.00000 0 -21395808.323 12724812.888 5536606.522 10 0 60303 37800.00000 0 -21768039.544 13070470.540 2372214.839 10 0 60303 38700.00000 0 -21776086.514 13242890.419 -838296.456 10 0 60303 39600.00000 0 -21445768.838 13193260.774 -4032503.681 10 0 60303 40500.00000 0 -20813975.320 12880267.118 -7148291.549 10 0 60303 41400.00000 0 -19926989.998 12272064.713 -10125067.052 10 0 60303 42300.00000 0 -18838440.212 11347861.353 -12904943.496 10 0 60303 43200.00000 0 -17606953.970 10099042.404 -15433870.930 10 0 60303 44100.00000 0 -16293626.061 8529789.456 -17662690.498 10 0 60303 45000.00000 0 -14959400.327 6657165.459 -19548091.808 10 0 60303 45900.00000 0 -13662478.755 4510661.788 -21053454.696 10 0 60303 46800.00000 0 -12455866.623 2131225.273 -22149559.183 10 0 60303 47700.00000 0 -11385156.883 -430194.832 -22815150.176 10 0 60303 48600.00000 0 -10486646.585 -3114519.999 -23037346.420 10 0 60303 49500.00000 0 -9785863.872 -5856758.267 -22811886.303 10 0 60303 50400.00000 0 -9296566.695 -8588471.119 -22143206.194 10 0 60303 51300.00000 0 -9020254.426 -11240389.379 -21044350.209 10 0 60303 52200.00000 0 -8946211.964 -13745070.043 -19536713.377 10 0 60303 53100.00000 0 -9052083.597 -16039484.174 -17649623.339 10 0 60303 54000.00000 0 -9304951.646 -18067428.935 -15419768.674 10 0 60303 54900.00000 0 -9662873.759 -19781664.141 -12890484.839 10 0 60303 55800.00000 0 -10076813.483 -21145685.018 -10110911.494 10 0 60303 56700.00000 0 -10492882.158 -22135058.114 -7135037.454 10 0 60303 57600.00000 0 -10854797.143 -22738265.421 -4020651.748 10 0 60303 58500.00000 0 -11106452.154 -22957022.309 -828221.234 10 0 60303 59400.00000 0 -11194490.838 -22806056.908 2380283.347 10 0 60303 60300.00000 0 -11070774.494 -22312361.081 5542589.917 10 0 60303 61200.00000 0 -10694639.360 -21513945.299 8597332.672 10 0 60303 62100.00000 0 -10034847.746 -20458150.413 11485241.177 10 0 60303 63000.00000 0 -9071150.216 -19199587.808 14150287.888 10 0 60303 63900.00000 0 -7795392.378 -17797794.854 16540771.881 10 0 60303 64800.00000 0 -6212118.943 -16314704.200 18610318.087 10 0 60303 65700.00000 0 -4338648.749 -14812033.090 20318773.033 10 0 60303 66600.00000 0 -2204616.465 -13348701.851 21632980.239 10 0 60303 67500.00000 0 149001.124 -11978389.339 22527420.759 10 0 60303 68400.00000 0 2671335.045 -10747327.131 22984706.991 10 0 60303 69300.00000 0 5303491.307 -9692424.228 22995920.487 10 0 60303 70200.00000 0 7980759.110 -8839800.157 22560787.447 10 0 60303 71100.00000 0 10635069.700 -8203787.357 21687688.376 10 0 60303 72000.00000 0 13197604.941 -7786444.254 20393501.402 10 0 60303 72900.00000 0 15601448.282 -7577599.129 18703281.716 10 0 60303 73800.00000 0 17784168.739 -7555422.827 16649782.612 10 0 60303 74700.00000 0 19690230.888 -7687506.150 14272826.575 10 0 60303 75600.00000 0 21273130.812 -7932396.618 11618537.855 10 0 60303 76500.00000 0 22497168.954 -8241529.758 8738450.667 10 0 60303 77400.00000 0 23338785.758 -8561473.279 5688509.963 10 0 60303 78300.00000 0 23787404.084 -8836388.999 2527983.928 10 0 60303 79200.00000 0 23845743.005 -9010607.879 -681690.532 10 0 60303 80100.00000 0 23529589.816 -9031208.462 -3878106.450 10 0 60303 81000.00000 0 22867040.018 -8850488.626 -6999105.693 10 0 60303 81900.00000 0 21897237.571 -8428224.951 -9983993.654 10 0 60303 82800.00000 0 20668668.903 -7733622.919 -12774725.282 10 0 60303 83700.00000 0 19237083.103 -6746874.259 -15317038.684 10 0 60303 84600.00000 0 17663126.414 -5460254.514 -17561513.700 10 0 60303 85500.00000 0 16009791.150 -3878713.340 -19464534.503 10 0 60304 0.00000 0 14339786.851 -2019931.842 -20989137.318 10 0 60304 900.00000 0 12712943.479 86157.540 -22105727.686 10 0 60304 1800.00000 0 11183757.851 2398366.817 -22792651.705 10 0 60304 2700.00000 0 9799182.973 4865726.364 -23036613.360 10 0 60304 3600.00000 0 8596754.596 7429373.786 -22832928.228 10 0 60304 4500.00000 0 7603131.808 10024780.537 -22185610.006 10 0 60304 5400.00000 0 6833111.966 12584224.076 -21107288.413 10 0 60304 6300.00000 0 6289160.118 15039403.240 -19618960.350 10 0 60304 7200.00000 0 5961471.471 17324088.566 -17749579.242 10 0 60304 8100.00000 0 5828563.133 19376697.792 -15535490.558 10 0 60304 9000.00000 0 5858369.086 21142689.876 -13019724.359 10 0 60304 9900.00000 0 6009791.396 22576678.263 -10251158.496 10 0 60304 10800.00000 0 6234641.368 23644175.854 -7283568.626 10 0 60304 11700.00000 0 6479888.072 24322899.398 -4174583.387 10 0 60304 12600.00000 0 6690118.690 24603579.406 -984565.136 10 0 60304 13500.00000 0 6810106.219 24490242.350 2224561.972 10 0 60304 14400.00000 0 6787375.588 23999954.033 5390513.614 10 0 60304 15300.00000 0 6574659.306 23162035.526 8451853.143 10 0 60304 16200.00000 0 6132138.491 22016785.163 11349182.078 10 0 60304 17100.00000 0 5429374.221 20613760.668 14026290.120 10 0 60304 18000.00000 0 4446847.173 19009693.810 16431242.461 10 0 60304 18900.00000 0 3177040.066 17266125.125 18517383.577 10 0 60304 19800.00000 0 1625016.510 15446857.707 20244238.422 10 0 60304 20700.00000 0 -191529.036 13615336.407 21578294.049 10 0 60304 21600.00000 0 -2242753.518 11832061.610 22493647.030 10 0 60304 22500.00000 0 -4487660.968 10152145.028 22972504.651 10 0 60304 23400.00000 0 -6875571.520 8623108.990 23005530.498 10 0 60304 24300.00000 0 -9348004.061 7283020.383 22592027.954 10 0 60304 25200.00000 0 -11840895.620 6159036.451 21739957.954 10 0 60304 26100.00000 0 -14287066.486 5266422.613 20465790.366 10 0 60304 27000.00000 0 -16618829.668 4608082.797 18794191.308 10 0 60304 27900.00000 0 -18770637.009 4174621.508 16757551.729 10 0 60304 28800.00000 0 -20681652.352 3944934.675 14395365.593 10 0 60304 29700.00000 0 -22298144.792 3887304.134 11753468.927 10 0 60304 30600.00000 0 -23575602.180 3960949.418 8883153.770 10 0 60304 31500.00000 0 -24480476.329 4117971.085 5840173.798 10 0 60304 32400.00000 0 -24991486.580 4305603.118 2683660.718 10 0 60304 33300.00000 0 -25100426.728 4468678.577 -525027.460 10 0 60304 34200.00000 0 -24812441.153 4552203.472 -3723503.450 10 0 60304 35100.00000 0 -24145758.371 4503928.921 -6849569.154 10 0 60304 36000.00000 0 -23130893.209 4276811.685 -9842431.139 10 0 60304 36900.00000 0 -21809351.336 3831257.719 -12643888.641 10 0 60304 37800.00000 0 -20231890.956 3137052.682 -15199470.286 10 0 60304 38700.00000 0 -18456415.179 2174896.582 -17459496.855 10 0 60304 39600.00000 0 -16545584.075 937476.683 -19380049.035 10 0 60304 40500.00000 0 -14564247.064 -569967.635 -20923821.276 10 0 60304 41400.00000 0 -12576803.537 -2329612.844 -22060845.293 10 0 60304 42300.00000 0 -10644602.372 -4311554.278 -22769069.468 10 0 60304 43200.00000 0 -8823488.947 -6474823.991 -23034783.388 10 0 60304 44100.00000 0 -7161601.762 -8768881.652 -22852879.784 10 0 60304 45000.00000 0 -5697510.040 -11135516.877 -22226949.262 10 0 60304 45900.00000 0 -4458769.138 -13511084.280 -21169206.406 10 0 60304 46800.00000 0 -3460952.974 -15828978.659 -19700248.940 10 0 60304 47700.00000 0 -2707202.650 -18022247.635 -17848654.781 10 0 60304 48600.00000 0 -2188308.750 -20026233.376 -15650424.782 10 0 60304 49500.00000 0 -1883322.498 -21781133.675 -13148281.929 10 0 60304 50400.00000 0 -1760668.781 -23234375.936 -10390840.468 10 0 60304 51300.00000 0 -1779713.015 -24342705.322 -7431660.997 10 0 60304 52200.00000 0 -1892714.799 -25073900.189 -4328209.805 10 0 60304 53100.00000 0 -2047085.049 -25408043.422 -1140742.719 10 0 60304 54000.00000 0 -2187850.565 -25338296.846 2068864.767 10 0 60304 54900.00000 0 -2260221.288 -24871146.702 5238318.233 10 0 60304 55800.00000 0 -2212151.239 -24026110.284 8306112.421 10 0 60304 56700.00000 0 -1996784.464 -22834916.445 11212723.093 10 0 60304 57600.00000 0 -1574682.242 -21340194.602 13901759.539 10 0 60304 58500.00000 0 -915737.107 -19593727.393 16321055.414 10 0 60304 59400.00000 0 -692.440 -17654340.194 18423677.018 10 0 60304 60300.00000 0 1177796.987 -15585515.659 20168829.888 10 0 60304 61200.00000 0 2614608.969 -13452832.692 21522646.563 10 0 60304 62100.00000 0 4292126.649 -11321336.323 22458840.834 10 0 60304 63000.00000 0 6180742.543 -9252947.540 22959216.283 10 0 60304 63900.00000 0 8239874.055 -7304020.376 23014019.611 10 0 60304 64800.00000 0 10419449.586 -5523147.234 22622132.132 10 0 60304 65700.00000 0 12661804.724 -3949303.093 21791095.636 10 0 60304 66600.00000 0 14903910.872 -2610405.190 20536971.825 10 0 60304 67500.00000 0 17079844.682 -1522347.561 18884037.512 10 0 60304 68400.00000 0 19123396.392 -688550.100 16864320.752 10 0 60304 69300.00000 0 20970708.954 -100040.459 14516986.098 10 0 60304 70200.00000 0 22562838.168 263935.191 11887580.104 10 0 60304 71100.00000 0 23848126.935 434798.662 9027151.011 10 0 60304 72000.00000 0 24784294.015 453070.896 5991259.223 10 0 60304 72900.00000 0 25340149.396 366414.476 2838897.596 10 0 60304 73800.00000 0 25496863.771 227370.822 -368657.452 10 0 60304 74700.00000 0 25248738.282 90888.542 -3569041.261 10 0 60304 75600.00000 0 24603441.670 11748.437 -6700018.867 10 0 60304 76500.00000 0 23581704.549 41995.213 -9700701.149 10 0 60304 77400.00000 0 22216483.457 228485.728 -12512734.706 10 0 60304 78300.00000 0 20551629.858 610658.679 -15081441.615 10 0 60304 79200.00000 0 18640120.129 1218621.162 -17356886.310 10 0 60304 80100.00000 0 16541921.100 2071634.016 -19294848.481 10 0 60304 81000.00000 0 14321580.916 3177060.861 -20857682.918 10 0 60304 81900.00000 0 12045646.277 4529826.012 -22015049.765 10 0 60304 82800.00000 0 9780014.198 6112404.915 -22744501.250 10 0 60304 83700.00000 0 7587328.781 7895348.277 -23031913.980 10 0 60304 84600.00000 0 5524531.270 9838318.629 -22871758.936 10 0 60304 85500.00000 0 3640664.977 11891596.590 -22267204.362 99